User: anonymous   Login
Location: Christchurch
(43.5330°S, 172.6330°E)
Time: 03:45:02
(UTC+13:00)
Language:

Cosmos 2219 Rocket - Orbit

View from above orbital plane
View from above orbital plane
View from above satellite
View from above satellite

Ground track
Ground track

The orbit data is extracted from the following two-line orbital elements,

1 22220U 92076B   19320.67853370 +.00000202 +00000-0 +12553-3 0  9999
2 22220 071.0012 001.5935 0012773 357.6003 140.5631 14.16449044395406
Epoch (UTC): 16 November 2019 16:17:05
Eccentricity: 0.0012773
inclination: 71.0012°
perigee height: 828 km
apogee height: 846 km
right ascension of ascending node: 1.5935°
argument of perigee: 357.6003°
revolutions per day: 14.16449044
mean anomaly at epoch: 140.5631°
orbit number at epoch: 39540

The dashed part of the orbit path shows where the satellite is in the earth's shadow,  

DLR